Regional Weather Roundup
Issued by NWS

Home | Current Version | Previous Version | Text Only | Print | Product List | Glossary Off
Versions: 1 2 3 4 5 6 7 8 9 10 11 12 13 14 15 16 17 18 19 20 21 22 23 24 25 26 27 28 29 30 31 32 33 34 35 36 37 38 39 40 41 42 43 44 45 46 47 48 49 50

000
ASUS43 KFSD 180610
RWRSD

WEATHER ROUNDUP FOR SOUTH DAKOTA
NATIONAL WEATHER SERVICE SIOUX FALLS SD
100 AM CDT SAT APR 18 2015

NOTE: "FAIR" INDICATES FEW OR NO CLOUDS BELOW 12,000 FEET WITH NO
SIGNIFICANT WEATHER AND/OR OBSTRUCTIONS TO VISIBILITY.


SDZ001>005-009-010-012>017-180700-
NORTHWEST AND NORTH CENTRAL SOUTH DAKOTA

CITY           SKY/WX    TMP DP  RH WIND       PRES   REMARKS
BUFFALO          N/A     49  29  46 S6        30.01F
FAITH            N/A     49  35  58 SW10      30.08S
MOBRIDGE       CLOUDY    44  26  49 CALM      30.04S
$$

SDZ012>016-024>037-041>051-057-063-072>074-180700-
SOUTHWEST AND SOUTH CENTRAL SOUTH DAKOTA

CITY           SKY/WX    TMP DP  RH WIND       PRES   REMARKS
RAPID CTY ARPT CLOUDY    47  45  93 NW3       30.09F
PIERRE         LGT RAIN  54  49  83 W10       30.06S
CUSTER         CLOUDY    41  38  89 E9        30.10F
ELLSWORTH AFB  CLOUDY    48  47  97 SW6       30.09S
PHILIP         CLOUDY    51  48  89 N3        30.07F
PINE RIDGE     LGT RAIN  49  46  90 E15       30.05F
SPEARFISH      CLOUDY    50  37  62 S10       30.08F
WINNER         CLOUDY    53  49  86 NW6       30.04F
$$

SDZ004>011-016>023-039-040-180700-
NORTHEAST SOUTH DAKOTA

CITY           SKY/WX    TMP DP  RH WIND       PRES   REMARKS
ABERDEEN       MOCLDY    46  24  42 N12       30.07R
WATERTOWN      FAIR      42  27  55 CALM      30.07S
BROOKINGS      FAIR      45  30  57 NE3       30.08R
SISSETON         N/A     50  27  40 NW12      30.06S
$$

SDZ017-020-022-023-036>040-048>070-180700-
SOUTHEAST SOUTH DAKOTA

CITY           SKY/WX    TMP DP  RH WIND       PRES   REMARKS
SIOUX FALLS    MOCLDY    56  30  37 NE3       30.05S
HURON          MOCLDY    51  28  41 E3        30.05R
CHAMBERLAIN    CLOUDY    56  46  70 N8        30.04F
MITCHELL       CLOUDY    58  30  34 NE8       30.05S
YANKTON        MOCLDY    59  46  63 S3        30.02R
$$

ABBREVIATIONS USED IN REMARKS
   TC - TEMPERATURE IN CELSIUS
  WCI - WIND CHILL INDEX
   HX - HEAT INDEX
  VSB - VISIBILITY



USA.gov is the U.S. government's official web portal to all federal, state and local government web resources and services.